User: anonymous   Login
Location: Dentlein
(49.1477°N, 10.4231°E)
Time: 09:24:06
(UTC+00:00)
Language:

Lacrosse 5 rocket - Orbit

View from above orbital plane
View from above orbital plane
View from above satellite
View from above satellite

Ground track
Ground track

The orbit data is extracted from the following two-line orbital elements,

1 28647U 05016B   24196.55533610  .00009950  00000-0  42640-3 0  9991
2 28647  56.9913 275.1112 0095269 326.9085  32.6020 15.19374793284674
Epoch (UTC): 14 July 2024 13:19:41
Eccentricity: 0.0095269
inclination: 56.9913°
perigee height: 442 km
apogee height: 573 km
right ascension of ascending node: 275.1112°
argument of perigee: 326.9085°
revolutions per day: 15.19374793
mean anomaly at epoch: 32.6020°
orbit number at epoch: 28467

The dashed part of the orbit path shows where the satellite is in the earth's shadow,  

DLR